{"data":{"norad_id":59103,"epoch":"2026-09-22T00:54:02.547936Z","epoch_age_seconds":122348,"freshness":"FRESH","line1":"1 59103U 24043F   26265.03752949  .00001861  00000+0  12644-3 0  9996","line2":"2 59103  97.8497  44.9611 0005771   7.0979 353.0329 15.07652335139736","mean_motion":15.07652335,"eccentricity":0.0005771,"inclination_deg":97.8497,"raan_deg":44.9611,"arg_perigee_deg":7.0979,"mean_anomaly_deg":353.0329,"bstar":0.00012644,"rev_number":13973,"period_min":95.512736363055,"perigee_km":539.38158349204,"apogee_km":547.37039378352,"semimajor_km":6921.5129886378,"source":"CELESTRAK","updated_at":"2026-09-23T09:00:19.173782Z"}}